DMSP 5D-2 F13 DEB, 40450

Orbit data source: Space-Track

DMSP 5D-2 F13 DEB, 40450 is space debris in SSO originally from a launch on Fri, 24 Mar 1995 UTC launched from the Air Force Western Test Range (AFWTR). Debris objects in space refer to the collection of defunct objects orbiting the Earth. Examples of debris include non-operational satellites, rocket bodies, and fragments generated from explosions, collisions, or faulty payload assembly.

Loading next visibility...
Identifier
40450, 1995-015BC
Orbit
SSO
Country
Flag of USUS
Related business
Manufacturer
Unknown
Mission
Spacecraft
Bus & Motor
Unknown
Mass
Unknown
Launch date (UTC)
1995-03-24 (31 years ago)
Launch vehicle
Unknown
Launch site
Air Force Western Test Range (AFWTR)
Object type
Payload
Rocket body
Debris
Shape & HBR
Unknown shape, 0.1 m
Radar Cross Section
Small (<0.1 m²)

Expand to show TLE details & history
Last TLE update: 16 hours ago

TLE from 16 hours ago
0 DMSP 5D-2 F13 DEB
1 40450U 95015BC  26071.03795148  .00002308  00000-0  87958-3 0  9999
2 40450  98.6429  98.6581 0011585 251.4210 108.5715 14.31782784572562
Epoch: 2026-03-12T00:54Z
TLE epoch observation values (Epoch: 2026-03-12T00:54:39.007Z)
Latitude
-0.00006°
Longitude
-84.698°
Altitude
791.363 km
Speed
7.457 km/s
True Right ascension
06h 34m 37s
True Declination
0° 00' 00"
Sunlit
Object was in daylight at epoch
Visualization orbit readout
Latitude
Unknown
Longitude
Unknown
Altitude
Unknown
Speed
Unknown
Apparent Right ascension
Unknown
Apparent Declination
Unknown
Sunlit
N/A
Visualization observer readout
Local Sidereal Time
21:20:27
Azimuth
Unknown
Elevation
Unknown
Doppler factor
Unknown
Orbital elements
Apogee altitude
791.214 km
Perigee altitude
774.621 km
Semi-major axis
7,161.055 km
Eccentricity
0.00116
Inclination
98.6429°
RAAN
98.6581°
Arg. of periapsis
251.421°
True anomaly
108.69728°
Mean anomaly
108.5715°
Eccentric anomaly
108.6344°
Mean motion
3.58161 °/min
Orbital period
100.51 mins
BSTAR
0.00087958
Loading maneuver chart data...
Computing Atmospheric mass density...

Documentation

Showing up to 5 results
|